Other Surface Observations
Issued by NWS

Home | Current Version | Previous Version | Text Only | Print | Product List | Glossary On
Versions: 1 2 3 4 5 6 7 8 9 10 11 12 13 14 15 16 17 18 19 20 21 22 23 24 25 26 27 28 29 30 31 32 33 34 35 36 37 38 39 40 41 42 43 44 45 46 47 48 49 50
000
SXUS52 KTAE 041619
OSOTAE
OSOTAE
North Florida/South Alabama/Southwest Georgia Weather Roundup
National Weather Service Tallahassee Florida
1200 PM EDT SAT JUL 04 2015

Note: "fair" indicates few or no clouds below 12,000 feet with no
significant weather and/or obstructions to visibility.

!FLZ017-115-028-034-025-041700
...North Florida...

CITY           SKY/WX    TMP DP  RH WIND       PRES   REMARKS
TALLAHASSEE    PTSUNNY   88  73  61 S8        30.11F HX  95
APALACHICOLA   SUNNY     91  74  57 W9        30.12S HX 100
PERRY          MOSUNNY   89  73  60 S7        30.13S HX  96
CROSS CITY       N/A     84  74  71 CALM      30.13R HX  91
JACKSONVILLE   MOSUNNY   88  72  58 W8        30.11F HX  94
$$

!FLZ112-006-005-002-011-041700
...Florida Panhandle...

CITY           SKY/WX    TMP DP  RH WIND       PRES   REMARKS
MARIANNA       PTSUNNY   88  75  65 SW10      30.10S HX  97
BONIFAY        FAIR      85  74  69 SW17G23   30.11S THUNDER HX  92
PANAMA CITY NW FAIR      88  73  61 SW12G20   30.10S HX  95
TYNDALL AFB    MOSUNNY   87  77  73 W12       30.11F HX  98
TYND DRONE APT FAIR      86  79  79 W6        30.11S HX 101
DE FUNIAK SPR  LGT RAIN  72  71  94 CALM      30.12F
EGLIN AFB      MOSUNNY   83  73  70 SW6       30.10F
DESTIN         LGT RAIN  84  75  74 VRB3      30.10F HX  92
HURLBURT       PTSUNNY   86  75  70 SW7       30.08F HX  95
CRESTVIEW      PTSUNNY   82  72  71 S7        30.12R
PENSACOLA      MOSUNNY   85  74  69 W12       30.09S THUNDER HX  92
$$

!ALZ063-066-041700
...South Alabama...

CITY           SKY/WX    TMP DP  RH WIND       PRES   REMARKS
DOTHAN         PTSUNNY   86  76  71 W9          N/A  HX  96
OZARK CAIRNS   PTSUNNY   87  74  64 W13G18    30.10S HX  94
FT RUCKER HELI PTSUNNY   86  73  65 W8        30.10R HX  93
RUCKER HELI 3  FAIR      85  72  65 SW10      30.12R HX  91
RUCKER HELI 2  FAIR      84  76  76 W8        30.10S HX  93
FLORALA APT    TSTM      75  70  83 VRB3      30.14R
ANDALUSIA      PTSUNNY   90  72  55 W8        30.10S HX  97
TROY           CLOUDY    88  73  61 W10       30.10F HX  95
EUFALA         PTSUNNY   88  73  62 W5        30.07F HX  96
MOBILE         PTSUNNY   88  73  61 SW13      30.09F HX  95
$$

!GAZ120>161-041700
...Southwest and South Central Georgia...

CITY           SKY/WX    TMP DP  RH WIND       PRES   REMARKS
THOMASVILLE    FAIR      86  73  66 W6        30.13F HX  93
BAINBRIDGE     MOSUNNY   90  77  66 SW7       30.11S HX 102
MOODY AFB      CLOUDY    86  74  67 SW5       30.12F HX  94
VALDOSTA       PTSUNNY   86  73  65 VRB3      30.13S HX  93
MOULTRIE       MOSUNNY   86  75  70 SW7       30.13S HX  95
BLAKELY        PTSUNNY   88  77  70 SW12      30.11S HX 100
ALBANY         PTSUNNY   86  73  65 W10       30.12F HX  93
TIFTON         PTSUNNY   85  71  62 W7        30.12S HX  91
FITZGERALD     FAIR      88  74  63 W7        30.14S HX  96
CORDELE        FAIR      89  76  65 W13       30.12S HX  99
AMERICUS       FAIR      86  72  62 W13G20    30.13S HX  92
HOMERVILLE     FAIR      88  75  66 SW6       30.13S HX  97
$$

!GMZ750-755-770-775-041700
...Coastal and Buoy Obs...

STATION/POSITION TIME  TEMP    WIND        PRES    VSBY  WAVE
                       AIR SEA DIR/SP/G                  HT/PER
                 (UTC) (F)     (DEG/KT/KT) (MB)    (MI)  (FT/S)
KEATON BEACH     1600   84     250/  5/  6 1020.4R
CEDAR KEY        1600   84     200/  7/  8 1020.6S
C TOWER          1600   83     240/  7/  7 1020.1S
APALACHICOLA BUO 1550   85 86  190/  6/  8 1020.3R         2/ 4
PANAMA CITY BUOY 1550   84 85  200/  4/  4 1020.2R         2/ 9
MOBILE BUOY      1550   85 85  210/  8/ 10 1019.5S         2/ 4
ORANGE BCH AL BU 1550   83 83  210/ 12/ 14 1018.6R         2/ 4
$$



USA.gov is the U.S. government's official web portal to all federal, state and local government web resources and services.